Location: West Cummington
(42.4920°N, 72.9680°W)
Time: 21:53:19
(UTC-04:00)

ATLAS 2AS CENTAUR R/B - Visible Passes

Search period start: 24 April 2015 00:00
Search period end: 04 May 2015 00:00
Orbit: 915 x 1298 km, 63.7° (Epoch: 30 March)

Date Brightness Start Highest point End Pass type
(mag) Time Alt. Az. Time Alt. Az. Time Alt. Az.
24 Apr 5.1 02:15:48 10° ESE 02:16:47 10° ESE 02:18:23 10° E visible
24 Apr 3.2 04:01:27 22° SSW 04:06:22 62° ESE 04:14:07 10° NE visible
25 Apr 3.8 03:18:21 25° SSE 03:21:50 40° ESE 03:29:01 10° NE visible
25 Apr 3.4 05:05:48 11° WSW 05:12:45 52° NW 05:20:29 10° NNE visible
26 Apr 4.3 02:35:10 22° SE 02:37:25 26° ESE 02:43:35 10° NE visible
26 Apr 3.0 04:22:37 22° SW 04:27:46 73° NW 04:35:43 10° NNE visible
27 Apr 4.7 01:51:57 15° ESE 01:53:07 15° ESE 01:57:23 10° ENE visible
27 Apr 2.9 03:39:24 34° SSW 03:42:58 78° ESE 03:50:53 10° NE visible
28 Apr 3.3 02:56:07 40° SSE 02:58:20 52° ESE 03:05:54 10° NE visible
28 Apr 3.7 04:43:33 14° WSW 04:49:37 43° NW 04:57:07 10° NNE visible
29 Apr 3.8 02:12:47 32° SE 02:13:51 34° ESE 02:20:41 10° NE visible
29 Apr 3.2 04:00:13 27° WSW 04:04:31 60° NW 04:12:23 10° NNE visible
30 Apr 4.4 01:29:25 21° ESE 01:29:29 21° ESE 01:35:02 10° ENE visible
30 Apr 2.9 03:16:51 43° SW 03:19:37 84° NW 03:27:36 10° NE visible
30 Apr 4.3 05:05:31 10° W 05:11:54 27° NNW 05:18:29 10° NNE visible
01 May 4.9 00:46:00 12° E 00:46:00 12° E 00:48:05 10° E visible
01 May 2.9 02:33:26 56° S 02:34:53 67° ESE 02:42:42 10° NE visible
01 May 4.0 04:20:52 15° W 04:26:33 36° NW 04:33:45 10° NNE visible
02 May 3.4 01:49:58 44° ESE 01:50:19 44° ESE 01:57:39 10° NE visible
02 May 3.5 03:37:24 27° WSW 03:41:21 49° NW 03:49:01 10° NNE visible
03 May 4.1 01:06:29 28° ESE 01:06:29 28° ESE 01:12:17 10° NE visible
03 May 3.0 02:53:54 45° WSW 02:56:20 69° NW 03:04:16 10° NNE visible
03 May 4.6 04:42:56 10° WNW 04:48:58 24° NNW 04:55:09 10° NNE visible
